HONGYAN 1 (43914 NORAD) Tracking and Keplerian Element Data

This shows tracking and keplerian element data for the satellite.

Feedback or suggestion? Click here.




ElementValue
Catalog43914
NameHONGYAN 1
Epoch Orbit301
Epoch Day20.75434908
Epoch Year2019
RAAN102.8446
Inclination50.0084
Eccentricity0.0006456
Argument of Perigee301.4013
Mean Anonmoly58.6231
Mean Motion13.43708287
Decay Rate-1.29E-06
L11 43914U 18112F 19020.75434908 -.00000129 00000-0 00000-0 0 9999
L22 43914 50.0084 102.8446 0006456 301.4013 58.6231 13.43708287 3010

Live tracking and technical data element details for HONGYAN 1 (NORAD 43914). HONGYAN 1 can be tracked NOW for your location showing map with azimuth and elevation plus other details from your city location.

Track the satellite on the map from your city or location and see movement details for azimuth, elevation, latitude, longitude, range, height, and movement on the map or in text.







IsCatalogInMostPopularTable: catalog: 43914, numindb: 18
Update: records affected: 1



GetName: 43914 HONGYAN 1

Hit Count: updated at: Wed, 23 Jan 2019 02:48:29 GMT